User: anonymous   Login
Location: Unspecified
(0.0000°N, 0.0000°E)
Time: 08:29:20
(UTC+02:00)
Language:

Coronas F rocket - Orbit

View from above orbital plane
View from above orbital plane
View from above satellite
View from above satellite

Ground track
Ground track

The orbit data is extracted from the following two-line orbital elements,

1 26874U 01032B   15109.87188909  .00026369  00000-0  28903-3 0  9990
2 26874 082.4704 019.7651 0012162 013.5094 346.6486 15.63000138769014
Epoch (UTC): 19 April 2015 20:55:31
Eccentricity: 0.0012162
inclination: 82.4704°
perigee height: 371 km
apogee height: 387 km
right ascension of ascending node: 19.7651°
argument of perigee: 13.5094°
revolutions per day: 15.63000138
mean anomaly at epoch: 346.6486°
orbit number at epoch: 76901

The dashed part of the orbit path shows where the satellite is in the earth's shadow,  

DLR